{"data":{"norad_id":65520,"intl_designator":"2025-200A","name":"STARLINK-35112","alt_names":[],"object_type":"PAYLOAD","status":"ACTIVE","operator":null,"country":"US","launch_date":"2025-09-06","launch_site_code":"AFWTR","launch_vehicle":null,"mission":null,"orbit_class":"UNKNOWN","rcs_meters":null,"size_class":null,"mass_kg":null,"dimensions":null,"purposes":["comms"],"wikipedia_slug":null,"has_3d_model":false,"image_url":null,"decayed_at":null,"tle_current":{"epoch":"2026-05-25T03:49:36.717600Z","epoch_age_seconds":68628,"freshness":"FRESH","line1":"1 65520U 25200A   26145.15945275  .00003478  00000+0  24497-3 0  9993","line2":"2 65520  97.4484 214.7455 0003632 162.2413 197.8942 15.05652749 40634","mean_motion":15.05652749,"eccentricity":0.0003632,"inclination_deg":97.4484,"raan_deg":214.7455,"arg_perigee_deg":162.2413,"mean_anomaly_deg":197.8942,"bstar":0.00024497,"rev_number":4063,"period_min":95.63958229787,"perigee_km":546.98660302003,"apogee_km":552.01884051393,"semimajor_km":6927.639721767,"source":"CELESTRAK","updated_at":"2026-05-25T13:38:20.845883Z"}}}